STARLINK-2288 (48034 NORAD) Tracking and Keplerian Element Data

This shows tracking and keplerian element data for the satellite.

Feedback or suggestion? Click here.




ElementValue
Catalog48034
NameSTARLINK-2288
Epoch Orbit1526
Epoch Day173.86846378
Epoch Year2021
RAAN136.6715
Inclination53.0557
Eccentricity0.0001455
Argument of Perigee63.9653
Mean Anonmoly296.1485
Mean Motion15.06387087
Decay Rate3.757E-05
L11 48034U 21024BK 21173.86846378 .00003757 00000-0 27109-3 0 9996
L22 48034 53.0557 136.6715 0001455 63.9653 296.1485 15.06387087 15266

Live tracking and technical data element details for STARLINK-2288 (NORAD 48034). STARLINK-2288 can be tracked NOW for your location showing map with azimuth and elevation plus other details from your city location.

Track the satellite on the map from your city or location and see movement details for azimuth, elevation, latitude, longitude, range, height, and movement on the map or in text.







IsCatalogInMostPopularTable: catalog: 48034, numindb: 40
Update: records affected: 1



GetName: 48034 STARLINK-2288

Hit Count: updated at: Thu, 24 Jun 2021 02:35:40 GMT